sat.trackr.live / text

‹ back to catalog

STARLINK-6208

NORAD 56895 · 2023-083V

PAYLOAD ACTIVE UNKNOWN

§ Identity

Operator
Country
US
Launch date
2023-06-12
Launch site
AFETR
Launch vehicle
Mass (kg)
RCS (m²)

Purposes: comms

External: N2YO · Heavens-Above · Gunter

§ Orbital elements

Epoch: 2026-09-19T19:19:31.746720Z

Period
94.27 min
Inclination
43.0044°
Eccentricity
0.0002272
Mean motion
15.27577299 rev/d
Perigee alt
481.5 km
Apogee alt
484.6 km
Semi-major
6,861.2 km
B*
2.1269e-5
RAAN
72.7020°
Arg perigee
273.3216°
Mean anomaly
86.7376°
Rev number
18,127

§ Raw data

STARLINK-62081 56895U 23083V   26262.80522855  .00000323  00000+0  21269-4 0  99932 56895  43.0044  72.7020 0002272 273.3216  86.7376 15.27577299181275

JSON: /api/v1/satellites/56895 · /tle

For live sub-satellite position, see the globe view (requires WebGL).

§ Visibility from observer

Set your observer location to see the next 7 days of passes ≥ 10°. The values pass through the URL so the page stays shareable.

No JS? Fill the form by hand. The geolocation button needs JavaScript.